STARLINK-2714 (48603 NORAD) Tracking and Keplerian Element Data

This shows tracking and keplerian element data for the satellite.

Feedback or suggestion? Click here.




ElementValue
Catalog48603
NameSTARLINK-2714
Epoch Orbit1346
Epoch Day215.25002315
Epoch Year2021
RAAN102.4896
Inclination53.0546
Eccentricity0.0001819
Argument of Perigee48.6996
Mean Anonmoly179.3783
Mean Motion15.42198531
Decay Rate-0.00043246
L11 48603U 21041BC 21215.25002315 -.00043246 00000-0 -98850-3 0 9992
L22 48603 53.0546 102.4896 0001819 48.6996 179.3783 15.42198531 13468

Live tracking and technical data element details for STARLINK-2714 (NORAD 48603). STARLINK-2714 can be tracked NOW for your location showing map with azimuth and elevation plus other details from your city location.

Track the satellite on the map from your city or location and see movement details for azimuth, elevation, latitude, longitude, range, height, and movement on the map or in text.







IsCatalogInMostPopularTable: catalog: 48603, numindb: 25
Update: records affected: 1



GetName: 48603 STARLINK-2714

Hit Count: updated at: Tue, 03 Aug 2021 23:20:54 GMT